Weather History for Mammoth, CA

Change the Weather History Date:

Tuesday, July 2, 2013

  Actual Average Record
Temperature  
Mean Temperature 74 °F -  
Max Temperature 89 °F 76 °F 89 °F (2013)
Min Temperature 60 °F 61 °F 30 °F (2010)
Cooling Degree Days 10    
Growing Degree Days 24 (Base 50)    
Moisture  
Dew Point 40 °F    
Average Humidity 31    
Maximum Humidity 52    
Minimum Humidity 14    
Precipitation  
Precipitation 0.00 in - - ()
Sea Level Pressure  
Sea Level Pressure 30.39 in    
Wind  
Wind Speed 9 mph (WNW)    
Max Wind Speed 30 mph    
Max Gust Speed 45 mph    
Visibility 10 miles    
Events      
Averages and records for this station are not official NWS values.
T = Trace of Precipitation, MM = Missing Value Source: NWS Daily Summary

Daily Weather History Graph

Daily Weather History Graph

Search for Another Location

Airport:

Trip Planner

Search our weather history database for the weather conditions in past years. The results will help you decide how hot, cold, wet, or windy it might be!

Date:

Astronomy

Jul. 02, 2013 Rise Set
Actual Time 5:38 AM PDT 8:20 PM PDT
Civil Twilight 5:07 AM PDT 8:51 PM PDT
Nautical Twilight 4:28 AM PDT 9:30 PM PDT
Astronomical Twilight 3:44 AM PDT 10:13 PM PDT
Moon 1:40 AM PDT (7/2) 3:41 PM PDT (7/2)
Length of Visible Light 15h 44m
Length of Day
14h 42m
Waning Crescent, 25% of the Moon is Illuminated
Jul 2
Waning Crescent
Jul 8
New
Jul 15
First Quarter
Jul 22
Full
Jul 29
Last Quarter

Hourly Weather History & Observations

Time (PDT) Temp. Dew Point Humidity Pressure Visibility Wind Dir Wind Speed Gust Speed Precip Events Conditions
12:15 AM 66.2 °F 41.0 °F 40% 30.43 in 10.0 mi WNW 9.2 mph - N/A   Clear
12:35 AM 68.0 °F 41.0 °F 37% 30.42 in 10.0 mi West 10.4 mph - N/A   Mostly Cloudy
12:55 AM 68.0 °F 41.0 °F 37% 30.42 in 10.0 mi West 9.2 mph - N/A   Scattered Clouds
1:15 AM 66.2 °F 41.0 °F 40% 30.42 in 10.0 mi West 11.5 mph - N/A   Scattered Clouds
1:35 AM 68.0 °F 41.0 °F 37% 30.42 in 10.0 mi WNW 10.4 mph - N/A   Clear
1:55 AM 66.2 °F 41.0 °F 40% 30.42 in 10.0 mi WNW 10.4 mph - N/A   Clear
2:15 AM 66.2 °F 41.0 °F 40% 30.41 in 10.0 mi WNW 11.5 mph - N/A   Clear
2:35 AM 66.2 °F 41.0 °F 40% 30.41 in 10.0 mi WNW 4.6 mph - N/A   Clear
2:55 AM 66.2 °F 41.0 °F 40% 30.40 in 10.0 mi NW 4.6 mph - N/A   Clear
3:15 AM 64.4 °F 41.0 °F 42% 30.40 in 10.0 mi NW 4.6 mph - N/A   Clear
3:35 AM 64.4 °F 41.0 °F 42% 30.40 in 10.0 mi West 4.6 mph - N/A   Clear
3:55 AM 62.6 °F 42.8 °F 48% 30.40 in 10.0 mi WNW 4.6 mph - N/A   Clear
4:15 AM 62.6 °F 42.8 °F 48% 30.40 in 10.0 mi West 4.6 mph - N/A   Clear
4:35 AM 62.6 °F 42.8 °F 48% 30.40 in 10.0 mi WNW 3.5 mph - N/A   Clear
4:55 AM 60.8 °F 42.8 °F 52% 30.40 in 10.0 mi WNW 3.5 mph - N/A   Clear
5:15 AM 60.8 °F 42.8 °F 52% 30.40 in 10.0 mi Calm Calm - N/A   Clear
5:35 AM 60.8 °F 42.8 °F 52% 30.40 in 10.0 mi NNW 3.5 mph - N/A   Clear
5:55 AM 60.8 °F 41.0 °F 48% 30.40 in 10.0 mi NW 3.5 mph - N/A   Clear
6:15 AM 60.8 °F 41.0 °F 48% 30.40 in 10.0 mi NW 3.5 mph - N/A   Clear
6:35 AM 62.6 °F 42.8 °F 48% 30.40 in 10.0 mi Calm Calm - N/A   Clear
6:55 AM 64.4 °F 42.8 °F 45% 30.40 in 10.0 mi NW 5.8 mph - N/A   Clear
7:15 AM 66.2 °F 42.8 °F 43% 30.40 in 10.0 mi WNW 3.5 mph - N/A   Clear
7:35 AM 69.8 °F 42.8 °F 38% 30.40 in 10.0 mi Calm Calm - N/A   Clear
7:55 AM 71.6 °F 42.8 °F 35% 30.40 in 10.0 mi Calm Calm - N/A   Clear
8:15 AM 73.4 °F 42.8 °F 33% 30.40 in 10.0 mi Calm Calm - N/A   Clear
8:35 AM 75.2 °F 42.8 °F 31% 30.40 in 10.0 mi Calm Calm - N/A   Clear
8:55 AM 77.0 °F 42.8 °F 29% 30.40 in 10.0 mi Calm Calm - N/A   Clear
9:15 AM 78.8 °F 44.6 °F 30% 30.40 in 10.0 mi ESE 3.5 mph - N/A   Clear
9:35 AM 80.6 °F 42.8 °F 26% 30.40 in 10.0 mi SE 4.6 mph - N/A   Clear
9:55 AM 82.4 °F 39.2 °F 21% 30.40 in 10.0 mi SSE 3.5 mph - N/A   Clear
10:15 AM 82.4 °F 39.2 °F 21% 30.40 in 10.0 mi SE 5.8 mph - N/A   Clear
10:35 AM 84.2 °F 37.4 °F 19% 30.40 in 10.0 mi Calm Calm - N/A   Clear
10:55 AM 86.0 °F 37.4 °F 18% 30.39 in 10.0 mi SSE 3.5 mph - N/A   Clear
11:15 AM 87.8 °F 35.6 °F 16% 30.38 in 10.0 mi East 11.5 mph - N/A   Clear
11:35 AM 87.8 °F 35.6 °F 16% 30.38 in 10.0 mi ESE 9.2 mph 17.3 mph N/A   Clear
11:55 AM 89.6 °F 33.8 °F 14% 30.37 in 10.0 mi East 10.4 mph - N/A   Clear
12:15 PM 89.6 °F 33.8 °F 14% 30.36 in 10.0 mi SE 11.5 mph 20.7 mph N/A   Clear
12:35 PM 86.0 °F 33.8 °F 15% 30.37 in 10.0 mi ESE 10.4 mph - N/A   Clear
12:55 PM 80.6 °F 35.6 °F 20% 30.38 in 10.0 mi SW 25.3 mph 44.9 mph N/A   Scattered Clouds
1:15 PM 80.6 °F 39.2 °F 23% 30.38 in 10.0 mi SSW 29.9 mph 44.9 mph N/A   Clear
1:35 PM 84.2 °F 37.4 °F 19% 30.38 in 10.0 mi SSW 26.5 mph 33.4 mph N/A   Clear
1:55 PM 84.2 °F 37.4 °F 19% 30.38 in 10.0 mi SSW 21.9 mph 32.2 mph N/A   Clear
2:15 PM 86.0 °F 35.6 °F 17% 30.39 in 10.0 mi SW 23.0 mph 29.9 mph N/A   Clear
2:35 PM 86.0 °F 33.8 °F 15% 30.38 in 10.0 mi SSW 24.2 mph 33.4 mph N/A   Mostly Cloudy
2:55 PM 84.2 °F 35.6 °F 18% 30.38 in 10.0 mi SSW 18.4 mph 34.5 mph N/A   Scattered Clouds
3:15 PM 82.4 °F 33.8 °F 17% 30.39 in 10.0 mi West 16.1 mph 21.9 mph N/A   Clear
3:35 PM 84.2 °F 33.8 °F 16% 30.39 in 10.0 mi WNW 24.2 mph 31.1 mph N/A   Clear
3:55 PM 84.2 °F 35.6 °F 18% 30.38 in 10.0 mi WNW 25.3 mph 29.9 mph N/A   Clear
4:15 PM 86.0 °F 35.6 °F 17% 30.37 in 10.0 mi WNW 17.3 mph 23.0 mph N/A   Clear
4:35 PM 86.0 °F 33.8 °F 15% 30.37 in 10.0 mi WNW 19.6 mph 25.3 mph N/A   Clear
4:55 PM 84.2 °F 39.2 °F 20% 30.37 in 10.0 mi North 19.6 mph 31.1 mph N/A   Clear
5:15 PM 84.2 °F 39.2 °F 20% 30.37 in 10.0 mi North 16.1 mph 21.9 mph N/A   Clear
5:35 PM 82.4 °F 37.4 °F 20% 30.36 in 10.0 mi NNW 17.3 mph 21.9 mph N/A   Clear
5:55 PM 82.4 °F 39.2 °F 21% 30.35 in 10.0 mi NNW 12.7 mph 18.4 mph N/A   Clear
6:15 PM 82.4 °F 37.4 °F 20% 30.35 in 10.0 mi NW 9.2 mph - N/A   Clear
6:35 PM 82.4 °F 39.2 °F 21% 30.34 in 10.0 mi NW 10.4 mph - N/A   Clear
6:55 PM 80.6 °F 39.2 °F 23% 30.34 in 10.0 mi NW 12.7 mph 16.1 mph N/A   Clear
7:15 PM 82.4 °F 35.6 °F 19% 30.35 in 10.0 mi NNW 12.7 mph 18.4 mph N/A   Clear
7:35 PM 78.8 °F 39.2 °F 24% 30.36 in 10.0 mi NNW 10.4 mph 18.4 mph N/A   Clear
7:55 PM 77.0 °F 39.2 °F 26% 30.36 in 10.0 mi NNW 9.2 mph - N/A   Clear
8:15 PM 75.2 °F 41.0 °F 29% 30.37 in 10.0 mi NNW 10.4 mph - N/A   Clear
8:35 PM 73.4 °F 39.2 °F 29% 30.38 in 10.0 mi NW 9.2 mph - N/A   Clear
8:55 PM 73.4 °F 39.2 °F 29% 30.38 in 10.0 mi West 6.9 mph 17.3 mph N/A   Clear
9:15 PM 71.6 °F 41.0 °F 33% 30.38 in 10.0 mi WSW 9.2 mph - N/A   Clear
9:35 PM 71.6 °F 41.0 °F 33% 30.39 in 10.0 mi North 3.5 mph - N/A   Clear
9:55 PM 66.2 °F 42.8 °F 43% 30.40 in 10.0 mi Calm Calm - N/A   Clear
10:15 PM 68.0 °F 42.8 °F 40% 30.40 in 10.0 mi West 4.6 mph - N/A   Clear
10:35 PM 66.2 °F 44.6 °F 46% 30.40 in 10.0 mi West 5.8 mph - N/A   Clear
10:55 PM 64.4 °F 44.6 °F 49% 30.40 in 10.0 mi WNW 3.5 mph - N/A   Clear
11:15 PM 66.2 °F 44.6 °F 46% 30.40 in 10.0 mi West 8.1 mph - N/A   Clear
11:35 PM 64.4 °F 42.8 °F 45% 30.40 in 10.0 mi North 3.5 mph - N/A   Clear
11:55 PM 60.8 °F 42.8 °F 52% 30.39 in 10.0 mi Calm Calm - N/A   Clear